Regional Weather Roundup
Issued by NWS

Home | Current Version | Previous Version | Text Only | Print | Product List | Glossary Off
Versions: 1 2 3 4 5 6 7 8 9 10 11 12 13 14 15 16 17 18 19 20 21 22 23 24 25 26 27 28 29 30 31 32 33 34 35 36 37 38 39 40 41 42 43 44 45 46 47 48 49 50

000
ASUS43 KLOT 021812
RWRIL

ILLINOIS REGIONAL WEATHER ROUNDUP
NATIONAL WEATHER SERVICE CHICAGO/ROMEOVILLE IL
100 PM CDT WED SEP 02 2015

NOTE: "FAIR" INDICATES FEW OR NO CLOUDS BELOW 12,000 FEET WITH NO
SIGNIFICANT WEATHER AND/OR OBSTRUCTIONS TO VISIBILITY.

* THESE STATIONS ARE NOT UNDER NWS QUALITY CONTROL. THEY ALSO MAY NOT
  REPORT WEATHER SUCH AS PRECIPITATION OR FOG.

ILZ001-002-007-009-015-016-024-021900-
NORTHWEST ILLINOIS

CITY           SKY/WX    TMP DP  RH WIND       PRES   REMARKS
MOLINE         FAIR      85  69  58 SW10      30.01F HX  89
6HR MIN TEMP:  70; 6HR MAX TEMP:  87;

STERLING*      FAIR      90  72  55 SW9G18    30.00S HX  96
SAVANNA*       FAIR      85  67  55 SW8       30.00F HX  88
$$

ILZ003-004-008-010-011-017-018-021900-
NORTH CENTRAL ILLINOIS

CITY           SKY/WX    TMP DP  RH WIND       PRES   REMARKS
ROCKFORD       PTSUNNY   87  70  56 SW12      30.03S HX  92
6HR MIN TEMP:  69; 6HR MAX TEMP:  87;

FREEPORT*      FAIR      84  71  64 SW10      30.03F HX  89
ROCHELLE*      FAIR      87  71  59 S10G17    30.02F HX  92
DE KALB*       MOSUNNY   87  72  60 SW10      30.04S HX  94
PERU*          FAIR      89  65  45 SW14G20   30.03F HX  91
$$

ILZ005-006-012>014-019>023-021900-
NORTHEAST ILLINOIS

CITY           SKY/WX    TMP DP  RH WIND       PRES   REMARKS
CHICAGO-OHARE  MOSUNNY   87  69  54 SW13      30.01F HX  91
6HR MIN TEMP:  72; 6HR MAX TEMP:  88;

CHICAGO-MIDWAY MOSUNNY   90  70  51 W12G18    30.01F HX  95
6HR MIN TEMP:  74; 6HR MAX TEMP:  90;

AURORA         MOSUNNY   88  71  57 SW13G18   30.03F HX  94
6HR MIN TEMP:  66; 6HR MAX TEMP:  88;

LANSING*       PTSUNNY   88  71  55 S8        30.03F HX  93
JOLIET*        MOSUNNY   89  72  55 SW10      30.02F HX  96
WAUKEGAN       SUNNY     87  69  54 SW8       30.00F HX  91
6HR MIN TEMP:  72; 6HR MAX TEMP:  87;

DUPAGE AIRPORT MOSUNNY   87  70  56 SW10      30.02F HX  92
6HR MIN TEMP:  70; 6HR MAX TEMP:  87;

KANKAKEE*      MOSUNNY   90  73  57 S9        30.04F HX  97
WHEELING       SUNNY     90  66  45 S12       30.02F HX  92
6HR MIN TEMP:  73; 6HR MAX TEMP:  90;

MORRIS*        SUNNY     87  72  59 SW10      30.02F HX  93
ROMEOVILLE*    MOSUNNY   87  69  55 SW9       30.03F HX  92
NORTHERLY ISL    N/A     88  64  44 W6          N/A  HX  89
$$

LMZ740>746-021900-
SOUTHERN LAKE MICHIGAN

STATION/POSITION SKY/WX   TEMP    WIND        PRES    VSBY  WAVE
                          AIR SEA DIR/SP/G                  HT/PER
                          (F)     (DEG/KT/KT) (MB)    (MI)  (FT/S)
SOUTHERN BUOY              72 71  200/  8/ 10 1015.9F         1
WILMETTE HARBOR            72 62  310/  8/ 10   N/A           0
HARRISON CRIB              81     150/ 11/ 14   N/A
BURNHAM HARBOR             88     210/  2/  9   N/A
CALUMET HARBOR             85     200/  5/  9   N/A
BURNS HARBOR               80     270/  5/  5 1017.6F
MICHIGAN CITY              81     220/  5/  5   N/A
MICHIGAN CITY 6N           82 74  290/  2/  2   N/A           0
ST. JOSEPH                 75 73  270/  6/  6   N/A           1/ 3
$$

ILZ025>027-034>036-040-047-049-050-058-095>099-021900-
WEST-CENTRAL ILLINOIS

CITY           SKY/WX    TMP DP  RH WIND       PRES   REMARKS
QUINCY         FAIR      88  69  53 SW14G22   30.01F HX  92
GALESBURG*     FAIR      85  69  57 S13       30.03S HX  88
MACOMB*        FAIR      89  67  49 SW8       30.05S HX  92
JACKSONVILLE*  FAIR      88  70  54 S8        30.05F HX  93
PITTSFIELD*    FAIR      89  69  50 S7        30.05F HX  93
$$

ILZ028>032-037-038-041>044-048-051>054-059>061-021900-
CENTRAL ILLINOIS

CITY           SKY/WX    TMP DP  RH WIND       PRES   REMARKS
PONTIAC        PTSUNNY   89  72  57 S14       30.04F HX  96
BLOOMINGTON    FAIR      89  70  53 SW9       30.06F HX  94
DECATUR        FAIR      90  66  45 SW14G21   30.06F HX  92
PEORIA         FAIR      91  70  49 SW12G18   30.03F HX  96
6HR MIN TEMP:  72; 6HR MAX TEMP:  91;

LACON*         FAIR      87  69  55 SW9       30.01F HX  91
LINCOLN*       FAIR      89  66  46 SW6       30.03F HX  91
SPRINGFIELD    FAIR      92  68  45 W6        30.05F HX  96
6HR MIN TEMP:  72; 6HR MAX TEMP:  92;

TAYLORVILLE    FAIR      88  68  51 SW7       30.06F HX  91
$$

ILZ033-039-045-046-055>057-062-063-021900-
EAST-CENTRAL ILLINOIS

CITY           SKY/WX    TMP DP  RH WIND       PRES   REMARKS
CHAMPAIGN      MOSUNNY   89  69  51 SW9       30.07F HX  93
MATTOON        FAIR      89  66  46 S7        30.08F HX  91
PARIS*         MOSUNNY   88  69  53 SW7       30.09F HX  93
$$

ILZ079-100>102-021900-
SOUTHWEST ILLINOIS

CITY           SKY/WX    TMP DP  RH WIND       PRES   REMARKS
ALTON          MOSUNNY   86  68  54 S7        30.08F HX  89
BELLEVILLE     PTSUNNY   88  69  54 VRB2      30.07F HX  92
CAHOKIA*       FAIR      90  66  45 VRB5      30.07F HX  92
SPARTA*        FAIR      86  70  60 W5        30.10F HX  90
$$

ILZ064>066-069>071-074>076-080>082-084>086-088>090-092>094-021900-
SOUTH-CENTRAL ILLINOIS

CITY           SKY/WX    TMP DP  RH WIND       PRES   REMARKS
CARBONDALE     FAIR      87  70  56 VRB5      30.09F HX  92
6HR MIN TEMP:  67; 6HR MAX TEMP:  87;

CAIRO*         FAIR      87  74  66 W5        30.08F HX  95
EFFINGHAM*     PTSUNNY   87  64  45 SE7       30.09F HX  88
MARION         PTSUNNY   90  70  51 S8        30.10F HX  95
MT. VERNON     FAIR      90  70  51 S5        30.10F HX  95
CENTRALIA*     FAIR      89  71  55 SW8       30.08F HX  95
SALEM*         FAIR      89  68  50 SW7       30.09F HX  92
METROPOLIS*    FAIR      89  73  58 SW5       30.09F HX  96
$$

ILZ067-068-072-073-078-083-087-091-021900-
SOUTHEAST ILLINOIS

CITY           SKY/WX    TMP DP  RH WIND       PRES   REMARKS
LAWRENCEVILLE  MOSUNNY   90  68  48 S5        30.09F HX  94
FLORA*         SUNNY     89  66  46 W3        30.09F HX  91
FAIRFIELD*     FAIR      87  69  54 SW7       30.08F HX  91
HARRISBURG*    FAIR      88  69  52 W6        30.09F HX  92
ROBINSON*      MOSUNNY   87  69  54 S7        30.10F HX  91
CARMI*         FAIR      88  69  54 CALM      30.08F HX  92
$$

ABBREVIATIONS USED IN REMARKS
   TC - TEMPERATURE IN CELSIUS
  WCI - WIND CHILL INDEX
   HX - HEAT INDEX
  VSB - VISIBILITY
$$




USA.gov is the U.S. government's official web portal to all federal, state and local government web resources and services.